Regional Weather Roundup
Issued by NWS

Home | Current Version | Previous Version | Text Only | Print | Product List | Glossary Off
Versions: 1 2 3 4 5 6 7 8 9 10 11 12 13 14 15 16 17 18 19 20 21 22 23 24 25 26 27 28 29 30 31 32 33 34 35 36 37 38 39 40 41 42 43 44 45 46 47 48 49 50

000
ASUS45 KBOU 192010
RWRCO

WEATHER ROUNDUP FOR COLORADO
NATIONAL WEATHER SERVICE DENVER/BOULDER CO
100 PM MST MON FEB 19 2018

NOTE: "FAIR" INDICATES FEW OR NO CLOUDS BELOW 12000 FEET WITH NO
SIGNIFICANT WEATHER AND/OR OBSTRUCTIONS TO VISIBILITY.

COZ001>005-013-030-031-192100-
...NORTHWEST COLORADO...

CITY           SKY/WX    TMP DP  RH WIND       PRES   REMARKS
CRAIG          HVY SNOW  12   6  77 SW22      29.40R VSB 1/4 WCI  -7
HAYDEN         LGT SNOW  12   9  85 W20       29.35S VSB 1   WCI  -6
MEEKER         SNOW      27  23  85 W12       29.30R VSB 1/2 WCI  17
RANGELY        SNOW      15  10  80 E23       29.41R VSB 1/2 WCI  -4
RABBIT EARS PA HVY SNOW  21  19  93 SW9G22    29.27S VSB<1/4 WCI  11
STEAMBOAT SPGS CLOUDY    21  18  87 W5        29.29F WCI  14
WALDEN         CLOUDY    32  21  64 S24G37    29.27F WCI  19
$$

COZ006>008-011-192100-
...WEST CENTRAL VALLEYS...

CITY           SKY/WX    TMP DP  RH WIND       PRES   REMARKS
GRAND JUNCTION LGT RAIN  39  35  86 NW30      29.35S
MONTROSE       PTSUNNY   48  20  32 SW29G47   29.35F
EAGLE          SNOW      34  30  86 VRB5      29.32S VSB 1/2 WCI  30
RIFLE          LGT RAIN  45  25  45 S18G38    29.30S
DELTA          FAIR      52  26  35 SW23G38   29.34F
NUCLA          PTSUNNY   46  21  36 S37G47    29.39F
$$

COZ017>023-064>068-192100-
...SOUTHWEST COLORADO...

CITY           SKY/WX    TMP DP  RH WIND       PRES   REMARKS
DURANGO        LGT RAIN  42  32  67 SW23G43   29.49F
CORTEZ         PTSUNNY   47  27  45 S33G45    29.44F
PAGOSA SPRINGS CLOUDY    41  26  57 S33G44    29.48F
TELLURIDE      SNOW      28  26  89 CALM      29.43F VSB 1/2
WOLF CREEK PAS   N/A     19  19 100 MISG      29.41F
$$

COZ009-010-012-014-032>034-037-058>063-192100-
...CENTRAL COLORADO...

CITY           SKY/WX    TMP DP  RH WIND       PRES   REMARKS
ASPEN          SNOW      31  27  85 N12       29.30R VSB 1/2 WCI  22
BUENA VISTA    CLOUDY    41  21  45 S23G39    29.32F
COPPER MTN     LGT SNOW  25  16  68 S26G37    29.33F VSB 1   WCI   9
BERTHOUD PASS  CLOUDY    19   9  63 S22G29    29.33F WCI   3
COTTONWOOD PAS FLURRIES  36  21  55 SW8G21    29.36F
GUNNISON       CLOUDY    40  24  53 VRB7      29.36F
GRANBY         CLOUDY    35  21  58 W12       29.28F WCI  26
KREMMLING      PTSUNNY   41  28  60 W3        29.29F
LEADVILLE      MIX PCPN  29  16  58 S26G40    29.29F WCI  14
MONARCH PASS   CLOUDY    21  19  93 SW47G67   29.46F WCI  -1
SALIDA         CLOUDY    42  28  58 S18G29    29.43F
SUNLIGHT       HVY SNOW  21  19  93 SW15      29.35R VSB<1/4 WCI   8
WILKERSON PASS LGT SNOW  25  19  80 S15G35    29.38F WCI  12
$$

COZ069>075-192100-
...SAN LUIS VALLEY/SANGRE DE CRISTO MOUNTAINS...

CITY           SKY/WX    TMP DP  RH WIND       PRES   REMARKS
ALAMOSA        PTSUNNY   43  31  62 S31G49    29.48F
DEL NORTE      LGT SNOW  32  29  88 SW5       29.45F VSB 3/4 WCI  28
LA VETA PASS   PTSUNNY   34  23  64 S39G61    29.59F WCI  18
SAGUACHE       PTSUNNY   39  32  75 SW12G24   29.45F
$$

COZ035-036-038>040-192100-
...NORTHERN COLORADO FRONT RANGE...

CITY           SKY/WX    TMP DP  RH WIND       PRES   REMARKS
DENVER INTL AP LGT SNOW  13   8  81 E12       29.55F WCI  -1
AURORA         FLURRIES  13  11  90 E10       29.55F WCI   0
FRONT RANGE AP LGT SNOW  16  12  86 E9        29.57F WCI   4
ERIE MUNI ARPT LGT SNOW  14  10  83 NE6       29.65F WCI   5
BOULDER MUN AP LGT SNOW  14  10  85 NE6       29.58F WCI   5
CENTENNIAL     LGT SNOW  15  12  88 E5        29.52F FOG     WCI   8
BROOMFIELD     LGT SNOW  14  10  85 NE7       29.55F WCI   4
FORT COLLINS   FLURRIES  14   8  77 SE7       29.62F WCI   4
LONGMONT       LGT SNOW  17  10  75 E6        29.62F WCI   8
$$

COZ041-046-047-076>085-087-088-192100-
...PIKES PEAK/PALMER DIVIDE AND SOUTHERN FOOTHILLS...

CITY           SKY/WX    TMP DP  RH WIND       PRES   REMARKS
COLO. SPRINGS  LGT SNOW  17  14  88 S13       29.52F VSB 1   WCI   4
A. F. ACADEMY  FRZ DRZL  16  12  86 S12       29.48F FOG     WCI   3
SCHRIEVER AFB  NOT AVBL
CHEYENNE MTN   SNOWSHWR  14  12  92 SE10      29.42F WCI   1
ELLICOTT         N/A    N/A N/A N/A S9        29.53F
FALCON         CLOUDY    16  14  94 MISG      29.50F FOG
FORT CARSON    NOT AVBL
LIMON          NOT AVBL
MONUMENT HILL  LGT SNOW N/A N/A N/A S17       29.46F
CANON CITY     LGT SNOW  21  19  93 E7        29.55F WCI  13
WALSENBURG     NOT AVBL
TRINIDAD       FAIR      31  21  66 E10       29.52F WCI  22
$$

COZ042>045-048>051-090-091-192100-
...NORTHEAST COLORADO...

CITY           SKY/WX    TMP DP  RH WIND       PRES   REMARKS
GREELEY ARPT   LGT SNOW  13   8  81 E8        29.65F WCI   2
AKRON          LGT SNOW  11   7  84 NE10      29.65F FOG     WCI  -3
BURLINGTON     LGT SNOW  17  12  80 NE9       29.67F WCI   6
WRAY           LGT SNOW  18  12  79 NE7       29.74F WCI   8
YUMA           NOT AVBL
STERLING       LGT SNOW  12   9  85 NE9       29.71F WCI   0
HOLYOKE        FLURRIES  18  10  73 NE13      29.74F WCI   4
FORT MORGAN    LGT SNOW  13   6  76 E10       29.67F WCI  -1
$$

COZ086-089-092>099-192100-
...SOUTHEAST COLORADO...

CITY           SKY/WX    TMP DP  RH WIND       PRES   REMARKS
PUEBLO         FLURRIES  21  14  74 E9        29.60F WCI  11
LA JUNTA       CLOUDY    24  12  60 E5        29.65F WCI  18
LAMAR          FLURRIES  27  12  53 E8        29.66F WCI  19
SPRINGFIELD      N/A     33  20  58 SE13G18   29.62F WCI  24
$$



USA.gov is the U.S. government's official web portal to all federal, state and local government web resources and services.